Location: Brachbach
(49.1847°N, 9.7240°E)
Time: 05:34:59
(UTC+00:00)

PCSat - Pass Details

Date: 11 March 2026
Orbit: 780 x 790 km, 67.1° (Epoch: 13 April)

Event Time Altitude Azimuth Distance (km) Brightness Sun altitude
Exits shadow 00:57:49 17° 8° (N) 1,933 12.1 -41.0°
Drops below altitude 10° 00:59:23 10° 21° (NNE) 2,364 12.7 -40.9°
Sets 01:02:13 0° 34° (NE) 3,296 13.6 -40.6°
